TimeEDT,TemperatureF,Dew PointF,Humidity,Sea Level PressureIn,VisibilityMPH,Wind Direction,Wind SpeedMPH,Gust SpeedMPH,PrecipitationIn,Events,Conditions,WindDirDegrees,DateUTC
12:15 AM,44.6,35.6,71,29.96,10.0,Calm,Calm,-,N/A,,Clear,0,2012-10-17 04:15:00
12:35 AM,44.6,35.6,71,29.96,10.0,Calm,Calm,-,N/A,,Clear,0,2012-10-17 04:35:00
12:55 AM,44.6,35.6,71,29.95,10.0,Calm,Calm,-,N/A,,Clear,0,2012-10-17 04:55:00
1:35 AM,42.8,35.6,76,29.96,10.0,Calm,Calm,-,N/A,,Clear,0,2012-10-17 05:35:00
1:55 AM,41.0,35.6,81,29.96,10.0,Calm,Calm,-,N/A,,Clear,0,2012-10-17 05:55:00
2:15 AM,42.8,35.6,76,29.96,10.0,Calm,Calm,-,N/A,,Clear,0,2012-10-17 06:15:00
2:35 AM,42.8,35.6,76,29.96,10.0,Calm,Calm,-,N/A,,Clear,0,2012-10-17 06:35:00
2:55 AM,42.8,35.6,76,29.96,10.0,Calm,Calm,-,N/A,,Clear,0,2012-10-17 06:55:00
3:15 AM,42.8,35.6,76,29.96,10.0,Calm,Calm,-,N/A,,Clear,0,2012-10-17 07:15:00
3:55 AM,41.0,35.6,81,29.95,10.0,Calm,Calm,-,N/A,,Clear,0,2012-10-17 07:55:00
4:15 AM,41.0,35.6,81,29.94,10.0,Calm,Calm,-,N/A,,Clear,0,2012-10-17 08:15:00
4:35 AM,41.0,35.6,81,29.95,10.0,Calm,Calm,-,N/A,,Clear,0,2012-10-17 08:35:00
4:55 AM,41.0,33.8,76,29.95,10.0,Calm,Calm,-,N/A,,Clear,0,2012-10-17 08:55:00
5:15 AM,39.2,35.6,87,29.96,10.0,Calm,Calm,-,N/A,,Clear,0,2012-10-17 09:15:00
5:35 AM,41.0,35.6,81,29.96,10.0,Calm,Calm,-,N/A,,Clear,0,2012-10-17 09:35:00
5:55 AM,39.2,35.6,87,29.97,10.0,Calm,Calm,-,N/A,,Clear,0,2012-10-17 09:55:00
6:15 AM,41.0,35.6,81,29.97,10.0,Calm,Calm,-,N/A,,Clear,0,2012-10-17 10:15:00
6:35 AM,41.0,35.6,81,29.96,10.0,Calm,Calm,-,N/A,,Clear,0,2012-10-17 10:35:00
6:55 AM,42.8,33.8,70,29.97,10.0,Calm,Calm,-,N/A,,Clear,0,2012-10-17 10:55:00
7:15 AM,41.0,33.8,76,29.98,10.0,Calm,Calm,-,N/A,,Clear,0,2012-10-17 11:15:00
7:35 AM,41.0,33.8,76,29.98,10.0,Calm,Calm,-,N/A,,Clear,0,2012-10-17 11:35:00
7:55 AM,41.0,33.8,76,29.98,10.0,WSW,4.6,-,N/A,,Clear,250,2012-10-17 11:55:00
8:15 AM,37.4,32.0,81,29.99,10.0,WSW,3.5,-,N/A,,Clear,240,2012-10-17 12:15:00
8:35 AM,42.8,33.8,70,29.99,10.0,Calm,Calm,-,N/A,,Clear,0,2012-10-17 12:35:00
8:55 AM,41.0,33.8,76,29.99,10.0,Calm,Calm,-,N/A,,Clear,0,2012-10-17 12:55:00
9:15 AM,37.4,33.8,87,30.00,10.0,Calm,Calm,-,N/A,,Clear,0,2012-10-17 13:15:00
9:35 AM,41.0,35.6,81,30.00,10.0,Calm,Calm,-,N/A,,Clear,0,2012-10-17 13:35:00
9:55 AM,44.6,39.2,81,30.01,10.0,Calm,Calm,-,N/A,,Clear,0,2012-10-17 13:55:00
10:15 AM,46.4,41.0,81,30.01,10.0,Calm,Calm,-,N/A,,Clear,0,2012-10-17 14:15:00
10:35 AM,50.0,41.0,71,30.02,10.0,Calm,Calm,-,N/A,,Clear,0,2012-10-17 14:35:00
10:55 AM,51.8,41.0,67,30.00,10.0,ESE,3.5,-,N/A,,Clear,110,2012-10-17 14:55:00
11:15 AM,53.6,37.4,54,30.01,10.0,Calm,Calm,-,N/A,,Clear,0,2012-10-17 15:15:00
11:35 AM,55.4,37.4,51,30.00,10.0,Calm,Calm,-,N/A,,Clear,0,2012-10-17 15:35:00
11:55 AM,59.0,39.2,48,30.00,10.0,SE,4.6,-,N/A,,Clear,140,2012-10-17 15:55:00
12:15 PM,59.0,37.4,45,29.99,10.0,ESE,6.9,-,N/A,,Clear,120,2012-10-17 16:15:00
12:35 PM,59.0,39.2,48,29.99,10.0,SE,8.1,-,N/A,,Clear,130,2012-10-17 16:35:00
12:55 PM,59.0,39.2,48,29.99,10.0,SE,5.8,-,N/A,,Clear,140,2012-10-17 16:55:00
1:15 PM,60.8,37.4,42,29.98,10.0,SE,5.8,-,N/A,,Clear,140,2012-10-17 17:15:00
1:35 PM,60.8,37.4,42,29.97,10.0,SE,6.9,-,N/A,,Clear,130,2012-10-17 17:35:00
2:15 PM,60.8,35.6,39,29.95,10.0,SSE,8.1,-,N/A,,Clear,150,2012-10-17 18:15:00
2:55 PM,60.8,35.6,39,29.93,10.0,SE,4.6,-,N/A,,Clear,140,2012-10-17 18:55:00
3:15 PM,60.8,35.6,39,29.93,10.0,SSE,4.6,-,N/A,,Clear,160,2012-10-17 19:15:00
3:35 PM,60.8,35.6,39,29.93,10.0,SSE,5.8,-,N/A,,Clear,150,2012-10-17 19:35:00
3:55 PM,60.8,37.4,42,29.93,10.0,SSE,5.8,-,N/A,,Clear,150,2012-10-17 19:55:00
4:15 PM,60.8,37.4,42,29.92,10.0,SSE,6.9,-,N/A,,Clear,160,2012-10-17 20:15:00
4:35 PM,60.8,37.4,42,29.93,10.0,SSE,6.9,-,N/A,,Clear,150,2012-10-17 20:35:00
5:15 PM,59.0,41.0,51,29.93,10.0,SSE,4.6,-,N/A,,Clear,150,2012-10-17 21:15:00
5:35 PM,59.0,41.0,51,29.93,10.0,South,3.5,-,N/A,,Clear,180,2012-10-17 21:35:00
5:55 PM,55.4,41.0,58,29.93,10.0,SSE,4.6,-,N/A,,Clear,150,2012-10-17 21:55:00
6:15 PM,55.4,41.0,58,29.93,10.0,SSE,3.5,-,N/A,,Clear,160,2012-10-17 22:15:00
6:35 PM,55.4,41.0,58,29.93,10.0,SSE,3.5,-,N/A,,Clear,150,2012-10-17 22:35:00
6:55 PM,53.6,41.0,62,29.93,10.0,SSE,3.5,-,N/A,,Clear,160,2012-10-17 22:55:00
7:15 PM,53.6,41.0,62,29.94,10.0,SSE,3.5,-,N/A,,Clear,150,2012-10-17 23:15:00
7:35 PM,51.8,41.0,67,29.94,10.0,SSE,4.6,-,N/A,,Clear,150,2012-10-17 23:35:00
7:55 PM,51.8,41.0,67,29.94,10.0,SSE,3.5,-,N/A,,Clear,160,2012-10-17 23:55:00
8:15 PM,51.8,41.0,67,29.95,10.0,South,3.5,-,N/A,,Clear,180,2012-10-18 00:15:00
8:35 PM,51.8,41.0,67,29.95,10.0,South,3.5,-,N/A,,Clear,170,2012-10-18 00:35:00
8:55 PM,51.8,41.0,67,29.95,10.0,Calm,Calm,-,N/A,,Clear,0,2012-10-18 00:55:00
9:15 PM,51.8,41.0,67,29.95,10.0,Calm,Calm,-,N/A,,Clear,0,2012-10-18 01:15:00
9:35 PM,51.8,41.0,67,29.95,10.0,Calm,Calm,-,N/A,,Clear,0,2012-10-18 01:35:00
9:55 PM,51.8,41.0,67,29.94,10.0,Calm,Calm,-,N/A,,Clear,0,2012-10-18 01:55:00
10:15 PM,51.8,41.0,67,29.94,10.0,Calm,Calm,-,N/A,,Clear,0,2012-10-18 02:15:00
10:35 PM,51.8,41.0,67,29.94,10.0,Calm,Calm,-,N/A,,Clear,0,2012-10-18 02:35:00
10:55 PM,50.0,41.0,71,29.94,10.0,Calm,Calm,-,N/A,,Clear,0,2012-10-18 02:55:00
11:15 PM,50.0,41.0,71,29.93,10.0,Calm,Calm,-,N/A,,Clear,0,2012-10-18 03:15:00
11:35 PM,50.0,41.0,71,29.93,10.0,Calm,Calm,-,N/A,,Clear,0,2012-10-18 03:35:00
11:55 PM,50.0,41.0,71,29.92,10.0,Calm,Calm,-,N/A,,Clear,0,2012-10-18 03:55:00